Location: Bourg-d�Oueil
(42.8588°N, 0.4991°E)
Time: 16:13:15
(UTC+00:00)

Cosmos 1727 Rocket - Pass Details

Date: 16 June 2021
Orbit: 960 x 997 km, 82.9° (Epoch: 04 August)

Event Time Altitude Azimuth Distance (km) Brightness Sun altitude
Exits shadow 20:25:31 - 167° (SSE) 3,483 6.4 -7.6°
Reaches altitude 10° 20:27:32 10° 163° (SSE) 2,749 5.8 -7.9°
Maximum altitude 20:33:32 48° 91° (E) 1,267 4.3 -8.7°
Drops below altitude 10° 20:39:32 10° 19° (NNE) 2,746 6.7 -9.4°
Sets 20:42:08 0° 14° (NNE) 3,693 7.5 -9.8°
